TYA2212 ULMM-UUYH

Flight info

Callsign TYA2212
Flight time 1h 38m
Altitude 35000
Route LOPRA2P LOPRA T822 SOTIS P35 UTUKA UTUKA3P
Aircraft B738/M-SDE2E3FGHIRWXY/LB1

Departure

Time 2026-04-27 16:12
Airport Emperor Nicholas II Murmansk Airport (ULMM)

Arrival

Time 2026-04-27 17:50
Airport Ukhta Airport (UUYH)
Time Latitude Longitude Altitude Speed Heading
2026-04-27 15:41 68.78454 32.75459 274 ft 0 kts 148°
2026-04-27 16:02 68.78452 32.75464 274 ft 2 kts 148°
2026-04-27 16:02 68.78425 32.75507 277 ft 7 kts 155°
2026-04-27 16:03 68.78382 32.75427 278 ft 10 kts 239°
2026-04-27 16:03 68.78345 32.75272 277 ft 0 kts 236°
2026-04-27 16:07 68.78342 32.75261 274 ft 3 kts 236°
2026-04-27 16:08 68.78308 32.75121 277 ft 15 kts 236°
2026-04-27 16:08 68.78201 32.75152 273 ft 21 kts 146°
2026-04-27 16:08 68.78088 32.75361 273 ft 20 kts 146°
2026-04-27 16:08 68.77963 32.75591 273 ft 23 kts 146°
2026-04-27 16:09 68.77830 32.75836 273 ft 22 kts 146°
2026-04-27 16:09 68.77577 32.76301 275 ft 20 kts 146°
2026-04-27 16:09 68.77460 32.76516 273 ft 15 kts 146°
2026-04-27 16:10 68.77399 32.76628 272 ft 2 kts 265°
2026-04-27 16:10 68.77421 32.76585 272 ft 1 kts 328°
2026-04-27 16:11 68.77473 32.76493 276 ft 31 kts 326°
2026-04-27 16:11 68.78764 32.74124 471 ft 161 kts 327°
2026-04-27 16:12 68.80488 32.70812 2435 ft 152 kts 326°
2026-04-27 16:12 68.81426 32.69118 2969 ft 173 kts 329°
2026-04-27 16:12 68.83646 32.64926 3694 ft 205 kts 328°
2026-04-27 16:13 68.84852 32.62679 4389 ft 209 kts 328°
2026-04-27 16:13 68.86986 32.57273 5717 ft 221 kts 298°
2026-04-27 16:13 68.87366 32.52982 5973 ft 250 kts 278°
2026-04-27 16:14 68.85751 32.43655 6649 ft 284 kts 241°
2026-04-27 16:14 68.82667 32.37022 8292 ft 303 kts 190°
2026-04-27 16:15 68.78712 32.40307 9810 ft 306 kts 143°
2026-04-27 16:15 68.75231 32.47287 11173 ft 316 kts 131°
2026-04-27 16:16 68.73136 32.58379 11842 ft 339 kts 107°
2026-04-27 16:16 68.71357 32.70403 13271 ft 342 kts 109°
2026-04-27 16:17 68.69440 32.82517 14606 ft 348 kts 110°
2026-04-27 16:17 68.67440 32.94743 15888 ft 352 kts 110°
2026-04-27 16:18 68.65403 33.07074 17157 ft 356 kts 111°
2026-04-27 16:18 68.63139 33.19289 18327 ft 365 kts 122°
2026-04-27 16:19 68.61483 33.24648 18900 ft 371 kts 132°
2026-04-27 16:19 68.59604 33.29403 19418 ft 375 kts 135°
2026-04-27 16:20 68.53762 33.44005 20951 ft 383 kts 134°
2026-04-27 16:20 68.51819 33.49033 21432 ft 385 kts 133°
2026-04-27 16:20 68.48034 33.59483 22352 ft 390 kts 132°
2026-04-27 16:21 68.46134 33.64781 22779 ft 392 kts 133°
2026-04-27 16:21 68.40333 33.80771 24029 ft 400 kts 134°
2026-04-27 16:22 68.38364 33.86139 24425 ft 402 kts 134°
2026-04-27 16:22 68.34384 33.96927 25135 ft 408 kts 134°
2026-04-27 16:22 68.32459 34.02127 25455 ft 411 kts 135°
2026-04-27 16:23 68.30429 34.07598 25783 ft 413 kts 135°
2026-04-27 16:23 68.26326 34.18617 26437 ft 418 kts 135°
2026-04-27 16:23 68.24274 34.24101 26772 ft 420 kts 135°
2026-04-27 16:24 68.22189 34.29657 27083 ft 422 kts 136°
2026-04-27 16:24 68.17971 34.40851 27592 ft 429 kts 136°
2026-04-27 16:25 68.13685 34.52168 28150 ft 433 kts 136°
2026-04-27 16:25 68.09379 34.63480 28668 ft 438 kts 137°
2026-04-27 16:26 68.05002 34.74924 29138 ft 442 kts 137°
2026-04-27 16:26 68.01323 34.84489 29531 ft 445 kts 137°
2026-04-27 16:27 67.96869 34.96011 30122 ft 445 kts 139°
2026-04-27 16:27 67.90349 35.12767 31087 ft 442 kts 139°
2026-04-27 16:28 67.85894 35.24127 31609 ft 443 kts 139°
2026-04-27 16:28 67.81444 35.35418 32141 ft 444 kts 139°
2026-04-27 16:29 67.74739 35.52314 32930 ft 444 kts 139°
2026-04-27 16:30 67.70245 35.63558 33372 ft 446 kts 139°
2026-04-27 16:30 67.65770 35.74698 33871 ft 446 kts 139°
2026-04-27 16:31 67.58990 35.91455 34576 ft 446 kts 139°
2026-04-27 16:31 67.54561 36.02326 34949 ft 448 kts 139°
2026-04-27 16:32 67.47617 36.19250 34946 ft 460 kts 139°
2026-04-27 16:33 67.40572 36.36282 34933 ft 460 kts 139°
2026-04-27 16:33 67.35870 36.47566 34920 ft 460 kts 139°
2026-04-27 16:34 67.31194 36.58729 34914 ft 459 kts 140°
2026-04-27 16:34 67.26497 36.69880 34906 ft 457 kts 140°
2026-04-27 16:35 67.21817 36.80928 34898 ft 455 kts 140°
2026-04-27 16:36 67.14802 36.97373 34891 ft 452 kts 140°
2026-04-27 16:36 67.10241 37.07993 34886 ft 451 kts 140°
2026-04-27 16:37 67.05583 37.18785 34882 ft 451 kts 140°
2026-04-27 16:37 67.00948 37.29459 34870 ft 450 kts 140°
2026-04-27 16:38 66.96296 37.40119 34861 ft 450 kts 141°
2026-04-27 16:38 66.91625 37.50768 34856 ft 450 kts 141°
2026-04-27 16:39 66.86925 37.61422 34857 ft 456 kts 141°
2026-04-27 16:39 66.82128 37.72243 34853 ft 464 kts 141°
2026-04-27 16:40 66.77312 37.83057 34840 ft 465 kts 141°
2026-04-27 16:40 66.72457 37.93882 34840 ft 464 kts 141°
2026-04-27 16:41 66.67721 38.04392 34836 ft 463 kts 142°
2026-04-27 16:41 66.62881 38.15084 34815 ft 462 kts 142°
2026-04-27 16:42 66.58054 38.25693 34820 ft 460 kts 142°
2026-04-27 16:42 66.53223 38.36252 34817 ft 460 kts 142°
2026-04-27 16:43 66.48391 38.46757 34818 ft 459 kts 142°
2026-04-27 16:43 66.43557 38.57211 34810 ft 459 kts 142°
2026-04-27 16:44 66.38724 38.67609 34799 ft 458 kts 142°
2026-04-27 16:44 66.33886 38.77965 34792 ft 458 kts 142°
2026-04-27 16:45 66.29074 38.88210 34795 ft 458 kts 143°
2026-04-27 16:45 66.24219 38.98490 34784 ft 458 kts 143°
2026-04-27 16:46 66.19478 39.08482 34783 ft 457 kts 143°
2026-04-27 16:46 66.14624 39.18662 34781 ft 457 kts 143°
2026-04-27 16:47 66.09757 39.28766 34769 ft 457 kts 143°
2026-04-27 16:47 66.04866 39.38740 34767 ft 456 kts 144°
2026-04-27 16:48 65.99980 39.48666 34767 ft 455 kts 144°
2026-04-27 16:48 65.95104 39.58541 34761 ft 453 kts 144°
2026-04-27 16:49 65.87874 39.73237 34754 ft 452 kts 143°
2026-04-27 16:49 65.83066 39.83127 34742 ft 451 kts 144°
2026-04-27 16:50 65.78256 39.92953 34734 ft 450 kts 144°
2026-04-27 16:50 65.73544 40.02516 34726 ft 450 kts 144°
2026-04-27 16:51 65.69154 40.13416 34740 ft 458 kts 128°
2026-04-27 16:51 65.66431 40.27520 34742 ft 468 kts 110°
2026-04-27 16:52 65.64671 40.42737 34727 ft 469 kts 109°
2026-04-27 16:52 65.62921 40.57982 34728 ft 469 kts 110°
2026-04-27 16:53 65.61122 40.73066 34723 ft 469 kts 110°
2026-04-27 16:53 65.59273 40.88197 34725 ft 468 kts 111°
2026-04-27 16:54 65.57452 41.02925 34733 ft 467 kts 111°
2026-04-27 16:54 65.55581 41.17933 34735 ft 467 kts 111°
2026-04-27 16:55 65.53689 41.32982 34728 ft 467 kts 111°
2026-04-27 16:55 65.51786 41.47975 34727 ft 467 kts 111°
2026-04-27 16:56 65.49866 41.62962 34735 ft 468 kts 112°
2026-04-27 16:56 65.47932 41.77932 34728 ft 468 kts 112°
2026-04-27 16:57 65.45995 41.92804 34727 ft 469 kts 112°
2026-04-27 16:57 65.44068 42.07401 34728 ft 469 kts 112°
2026-04-27 16:58 65.42038 42.22299 34737 ft 469 kts 113°
2026-04-27 16:58 65.39989 42.37176 34729 ft 469 kts 113°
2026-04-27 16:59 65.37934 42.52026 34733 ft 469 kts 113°
2026-04-27 16:59 65.35867 42.66875 34730 ft 468 kts 113°
2026-04-27 17:00 65.32774 42.88922 34728 ft 467 kts 113°
2026-04-27 17:01 65.30743 43.03315 34715 ft 466 kts 113°
2026-04-27 17:01 65.28656 43.17993 34721 ft 466 kts 114°
2026-04-27 17:02 65.26553 43.32649 34734 ft 466 kts 114°
2026-04-27 17:02 65.24439 43.47254 34726 ft 465 kts 114°
2026-04-27 17:03 65.22314 43.61824 34728 ft 465 kts 114°
2026-04-27 17:03 65.20184 43.76307 34728 ft 466 kts 114°
2026-04-27 17:04 65.18028 43.90848 34732 ft 466 kts 114°
2026-04-27 17:04 65.15905 44.05077 34732 ft 466 kts 114°
2026-04-27 17:05 65.13715 44.19599 34728 ft 466 kts 115°
2026-04-27 17:05 65.11482 44.34061 34735 ft 466 kts 115°
2026-04-27 17:06 65.09228 44.48496 34728 ft 466 kts 115°
2026-04-27 17:06 65.06968 44.62905 34729 ft 465 kts 115°
2026-04-27 17:07 65.04713 44.77184 34730 ft 465 kts 115°
2026-04-27 17:07 65.02805 44.89182 34731 ft 465 kts 115°
2026-04-27 17:08 65.00193 45.05480 34739 ft 465 kts 115°
2026-04-27 17:08 64.98266 45.17417 34723 ft 465 kts 115°
2026-04-27 17:09 64.95946 45.31690 34732 ft 465 kts 116°
2026-04-27 17:09 64.93627 45.45843 34730 ft 465 kts 116°
2026-04-27 17:10 64.91279 45.60085 34731 ft 466 kts 116°
2026-04-27 17:10 64.88948 45.74316 34722 ft 467 kts 113°
2026-04-27 17:11 64.87063 45.88998 34738 ft 469 kts 110°
2026-04-27 17:11 64.84394 46.10773 34722 ft 468 kts 111°
2026-04-27 17:12 64.81580 46.32798 34721 ft 469 kts 111°
2026-04-27 17:13 64.79687 46.47435 34718 ft 469 kts 111°
2026-04-27 17:13 64.77782 46.61983 34732 ft 469 kts 111°
2026-04-27 17:14 64.75840 46.76589 34720 ft 469 kts 111°
2026-04-27 17:14 64.73884 46.91205 34723 ft 470 kts 111°
2026-04-27 17:15 64.71962 47.05467 34714 ft 470 kts 112°
2026-04-27 17:15 64.69919 47.20030 34678 ft 470 kts 113°
2026-04-27 17:16 64.67805 47.34496 34663 ft 471 kts 113°
2026-04-27 17:16 64.65679 47.48962 34669 ft 471 kts 113°
2026-04-27 17:17 64.63564 47.63326 34675 ft 470 kts 113°
2026-04-27 17:17 64.61430 47.77734 34675 ft 470 kts 113°
2026-04-27 17:18 64.58203 47.99287 34673 ft 469 kts 114°
2026-04-27 17:18 64.56085 48.13293 34666 ft 470 kts 114°
2026-04-27 17:19 64.53903 48.27614 34674 ft 470 kts 114°
2026-04-27 17:19 64.51701 48.41947 34660 ft 470 kts 114°
2026-04-27 17:20 64.49489 48.56234 34665 ft 470 kts 114°
2026-04-27 17:20 64.47266 48.70491 34668 ft 470 kts 114°
2026-04-27 17:21 64.45029 48.84685 34664 ft 472 kts 115°
2026-04-27 17:21 64.42737 48.98713 34343 ft 457 kts 115°
2026-04-27 17:22 64.41665 49.05198 34007 ft 449 kts 115°
2026-04-27 17:22 64.40552 49.11926 33575 ft 445 kts 116°
2026-04-27 17:22 64.39450 49.18583 33167 ft 441 kts 115°
2026-04-27 17:22 64.38357 49.25171 32733 ft 437 kts 115°
2026-04-27 17:23 64.37282 49.31737 32248 ft 436 kts 115°
2026-04-27 17:23 64.36226 49.38274 31820 ft 432 kts 115°
2026-04-27 17:23 64.35182 49.44760 31395 ft 429 kts 115°
2026-04-27 17:23 64.34145 49.51186 30974 ft 426 kts 115°
2026-04-27 17:24 64.33108 49.57577 30552 ft 423 kts 115°
2026-04-27 17:24 64.32088 49.63834 30140 ft 420 kts 115°
2026-04-27 17:24 64.31047 49.70187 29720 ft 418 kts 115°
2026-04-27 17:24 64.30033 49.76354 29308 ft 415 kts 115°
2026-04-27 17:25 64.29012 49.82542 28897 ft 412 kts 115°
2026-04-27 17:25 64.27994 49.88685 28473 ft 409 kts 115°
2026-04-27 17:25 64.26980 49.94786 28051 ft 406 kts 115°
2026-04-27 17:25 64.26021 50.00541 27660 ft 403 kts 115°
2026-04-27 17:26 64.25019 50.06536 27239 ft 400 kts 115°
2026-04-27 17:26 64.24021 50.12491 26825 ft 397 kts 115°
2026-04-27 17:26 64.23027 50.18392 26406 ft 395 kts 116°
2026-04-27 17:26 64.22037 50.24252 26008 ft 392 kts 116°
2026-04-27 17:27 64.21053 50.30067 25596 ft 389 kts 116°
2026-04-27 17:27 64.20073 50.35840 25190 ft 387 kts 116°
2026-04-27 17:27 64.19095 50.41575 24788 ft 384 kts 116°
2026-04-27 17:27 64.18122 50.47267 24380 ft 381 kts 116°
2026-04-27 17:28 64.17154 50.52919 23978 ft 379 kts 116°
2026-04-27 17:28 64.16188 50.58543 23579 ft 376 kts 116°
2026-04-27 17:28 64.14273 50.69635 22792 ft 372 kts 116°
2026-04-27 17:29 64.13332 50.75063 22400 ft 370 kts 116°
2026-04-27 17:29 64.12385 50.80510 22012 ft 367 kts 116°
2026-04-27 17:29 64.11439 50.85934 21629 ft 365 kts 117°
2026-04-27 17:29 64.10498 50.91314 21237 ft 363 kts 117°
2026-04-27 17:30 64.09562 50.96653 20858 ft 361 kts 117°
2026-04-27 17:30 64.07741 51.06996 20103 ft 357 kts 117°
2026-04-27 17:30 64.06816 51.12233 19726 ft 355 kts 117°
2026-04-27 17:31 64.05892 51.17444 19350 ft 353 kts 117°
2026-04-27 17:31 64.04971 51.22625 18962 ft 351 kts 117°
2026-04-27 17:31 64.04052 51.27778 18588 ft 349 kts 117°
2026-04-27 17:31 64.03141 51.32890 18217 ft 347 kts 117°
2026-04-27 17:32 64.02228 51.37982 17840 ft 346 kts 117°
2026-04-27 17:32 64.00410 51.48091 17099 ft 343 kts 117°
2026-04-27 17:32 63.99509 51.53086 16730 ft 341 kts 117°
2026-04-27 17:33 63.98608 51.58065 16375 ft 339 kts 117°
2026-04-27 17:33 63.97708 51.63023 15999 ft 337 kts 117°
2026-04-27 17:33 63.96813 51.67946 15636 ft 335 kts 117°
2026-04-27 17:33 63.95934 51.72772 15279 ft 334 kts 117°
2026-04-27 17:34 63.95046 51.77629 14922 ft 332 kts 117°
2026-04-27 17:34 63.94159 51.82472 14563 ft 330 kts 118°
2026-04-27 17:34 63.93278 51.87266 14207 ft 328 kts 118°
2026-04-27 17:34 63.92397 51.92052 13853 ft 326 kts 118°
2026-04-27 17:35 63.91520 51.96803 13499 ft 325 kts 118°
2026-04-27 17:35 63.90685 52.01312 13163 ft 322 kts 118°
2026-04-27 17:35 63.89818 52.05993 12814 ft 320 kts 118°
2026-04-27 17:35 63.88955 52.10640 12472 ft 318 kts 118°
2026-04-27 17:36 63.88097 52.15247 12124 ft 316 kts 118°
2026-04-27 17:36 63.87245 52.19825 11778 ft 314 kts 119°
2026-04-27 17:36 63.86396 52.24366 11434 ft 311 kts 119°
2026-04-27 17:36 63.85550 52.28870 11085 ft 309 kts 119°
2026-04-27 17:37 63.84819 52.33465 10765 ft 312 kts 108°
2026-04-27 17:37 63.84485 52.38298 10505 ft 310 kts 103°
2026-04-27 17:37 63.84226 52.43096 10173 ft 310 kts 102°
2026-04-27 17:37 63.83972 52.47922 9944 ft 304 kts 103°
2026-04-27 17:38 63.83720 52.52612 9814 ft 296 kts 103°
2026-04-27 17:38 63.83463 52.57168 9679 ft 288 kts 103°
2026-04-27 17:38 63.83202 52.61635 9416 ft 285 kts 103°
2026-04-27 17:38 63.82935 52.66076 9132 ft 284 kts 104°
2026-04-27 17:39 63.82666 52.70493 8846 ft 283 kts 104°
2026-04-27 17:39 63.82393 52.74908 8554 ft 282 kts 104°
2026-04-27 17:39 63.82122 52.79292 8271 ft 281 kts 104°
2026-04-27 17:39 63.81850 52.83662 7988 ft 280 kts 104°
2026-04-27 17:40 63.81576 52.88033 7681 ft 280 kts 104°
2026-04-27 17:40 63.81303 52.92388 7395 ft 279 kts 105°
2026-04-27 17:40 63.81029 52.96728 7101 ft 279 kts 105°
2026-04-27 17:40 63.80767 53.00832 6828 ft 278 kts 105°
2026-04-27 17:41 63.80493 53.05158 6528 ft 277 kts 105°
2026-04-27 17:41 63.80218 53.09463 6244 ft 275 kts 105°
2026-04-27 17:41 63.79945 53.13736 5961 ft 273 kts 105°
2026-04-27 17:41 63.79672 53.17986 5658 ft 272 kts 105°
2026-04-27 17:42 63.79390 53.22229 5319 ft 273 kts 105°
2026-04-27 17:42 63.79108 53.26483 4895 ft 275 kts 105°
2026-04-27 17:42 63.78823 53.30781 4405 ft 273 kts 104°
2026-04-27 17:42 63.78545 53.34977 4127 ft 266 kts 104°
2026-04-27 17:43 63.78270 53.39094 3878 ft 263 kts 104°
2026-04-27 17:43 63.77997 53.43179 3633 ft 262 kts 104°
2026-04-27 17:43 63.77727 53.47173 3371 ft 259 kts 104°
2026-04-27 17:43 63.77454 53.51158 3123 ft 255 kts 103°
2026-04-27 17:44 63.77187 53.55111 2880 ft 253 kts 102°
2026-04-27 17:44 63.76922 53.59021 2640 ft 250 kts 103°
2026-04-27 17:44 63.76656 53.62891 2426 ft 248 kts 102°
2026-04-27 17:44 63.76391 53.66742 2144 ft 247 kts 102°
2026-04-27 17:45 63.76098 53.70518 2043 ft 239 kts 106°
2026-04-27 17:45 63.75677 53.74075 2000 ft 228 kts 108°
2026-04-27 17:45 63.75256 53.77455 1989 ft 218 kts 109°
2026-04-27 17:45 63.74860 53.80634 1987 ft 207 kts 108°
2026-04-27 17:46 63.74482 53.83690 1985 ft 199 kts 108°
2026-04-27 17:46 63.74109 53.86667 1991 ft 196 kts 112°
2026-04-27 17:46 63.73340 53.89076 1993 ft 190 kts 151°
2026-04-27 17:46 63.72060 53.89480 2014 ft 193 kts 188°
2026-04-27 17:47 63.70715 53.88983 2005 ft 198 kts 184°
2026-04-27 17:47 63.69814 53.88675 2006 ft 199 kts 191°
2026-04-27 17:47 63.68089 53.87536 2000 ft 185 kts 193°
2026-04-27 17:47 63.66883 53.86772 1995 ft 174 kts 192°
2026-04-27 17:48 63.65758 53.86074 1984 ft 161 kts 191°
2026-04-27 17:48 63.64691 53.85414 1854 ft 158 kts 191°
2026-04-27 17:48 63.63648 53.84768 1699 ft 154 kts 192°
2026-04-27 17:48 63.62622 53.84136 1456 ft 148 kts 192°
2026-04-27 17:49 63.61668 53.83545 1267 ft 138 kts 192°
2026-04-27 17:49 63.61062 53.83169 1137 ft 136 kts 193°
2026-04-27 17:49 63.60140 53.82597 913 ft 137 kts 191°
2026-04-27 17:49 63.59223 53.82035 667 ft 135 kts 193°
2026-04-27 17:50 63.58015 53.81288 500 ft 138 kts 194°
2026-04-27 17:50 63.56216 53.80160 468 ft 110 kts 195°
2026-04-27 17:50 63.55798 53.79904 477 ft 27 kts 186°
2026-04-27 17:51 63.55733 53.79992 473 ft 16 kts 126°
2026-04-27 17:51 63.55695 53.80109 476 ft 8 kts 125°
2026-04-27 17:51 63.55649 53.80177 473 ft 8 kts 165°
2026-04-27 17:51 63.55613 53.80295 472 ft 8 kts 79°
2026-04-27 17:52 63.55615 53.80309 479 ft 0 kts 78°
2026-04-27 17:52 63.55617 53.80335 475 ft 3 kts 77°
2026-04-27 17:52 63.55618 53.80342 479 ft 0 kts 77°